Home > Time Zones > World Clock > Weather > Yemen > Sana > Past weeks

Flag for Yemen Weather past 2 weeks in Sana, Yemen

Now
55 °F

Clear.


Feels Like: 55 °F
Forecast: 52 / 75 °F
Wind: 1 mph from North

Location: Sana'A Airport

Current Time: Oct 26, 2014 at 12:22:08 AM

Latest Report: Oct 26, 2014 at 12:00 AM


Visibility: 10 mi

Pressure: 30.33 "Hg

Humidity: 24%

Dew point: 19 °F

Location of SanaLocation

Historic Weather in Sana — Graph

°F

Sana temperature yesterday

Maximum temperature yesterday: 72 °F (at 1:00 PM)
Minimum temperature yesterday: 48 °F (at 5:00 AM)
Average temperature yesterday: 61 °F

Past Weeks' High & Low Weather Summary

 TemperatureHumidityPressure
High79 °F (Oct 20, 2:00 PM)50% (Oct 20, 6:00 AM)30.42 "Hg (Oct 20, 6:00 AM)
Low48 °F (Oct 23, 6:00 AM)12% (Oct 23, 2:00 PM)30.21 "Hg (Oct 19, 2:00 PM)
Average64 °F27%30.32 "Hg
* Reported Oct 10 11:00 PM — Oct 25 11:00 PM, Sana, Weather by CustomWeather, © 2014

Note: Actual official high and low records may vary slightly from our data, if they occured in-between our weather recording intervals... More about our weather records

Advertising

Sana weather history for previous 24 hours

 ConditionsComfort  
Time TempWeatherWind HumidityBarometerVisibility
11:00 PM
Oct 25
57 °FClear.2 mph25%30.33 "Hg10 mi
10:00 PM59 °FPassing clouds.3 mph23%30.33 "HgN/A
9:00 PM61 °FPassing clouds.5 mph22%30.33 "HgN/A
8:00 PM63 °FPassing clouds.5 mph22%30.33 "HgN/A
7:00 PM64 °FPassing clouds.6 mph22%30.30 "HgN/A
6:00 PM66 °FPassing clouds.10 mph22%30.27 "HgN/A
5:00 PM70 °FPassing clouds.13 mph20%30.27 "HgN/A
4:00 PM72 °FPassing clouds.12 mph19%30.27 "HgN/A
3:00 PM72 °FPassing clouds.9 mph19%30.24 "HgN/A
2:00 PM72 °FPassing clouds.7 mph19%30.27 "HgN/A
1:00 PM72 °FPassing clouds.6 mph20%30.30 "HgN/A
12:00 PM70 °FPassing clouds.3 mph21%30.33 "HgN/A
11:00 AM66 °FPassing clouds.6 mph26%30.36 "HgN/A
10:00 AM64 °FPassing clouds.6 mph28%30.39 "HgN/A
9:00 AM63 °FPassing clouds.2 mph32%30.39 "HgN/A
8:00 AM59 °FPassing clouds.1 mph34%30.39 "HgN/A
7:00 AM52 °FSunny.2 mph44%30.36 "Hg10 mi
6:00 AM50 °FSunny.3 mph43%30.36 "Hg10 mi
5:00 AM48 °FClear.2 mph50%30.33 "Hg10 mi
4:00 AM50 °FClear.2 mph47%30.33 "Hg10 mi
3:00 AM52 °FClear.1 mph44%30.33 "Hg10 mi
2:00 AM52 °FClear.1 mph44%30.33 "Hg10 mi
1:00 AM54 °FClear.2 mph41%30.36 "Hg1 mi
12:00 AM55 °FPassing clouds.1 mph38%30.36 "HgN/A
Weather by CustomWeather, © 2014

See weather overviewHow to use our weather pages